.
WxDataArchive / Data Records for 2012-12-30
2012-12-29 December 2012 2012-12-31

Data Records for Sunday, 30 December 2012

Time	Temp	Chill	HIndex	Humid	Dewpt	 Wind 	HiWind	WindDir	Rain 	Barom 
-----	----	-----	------	-----	-----	------	------	-------	-----	----- 
00:00	26.9	26.9	26.9	83	22.4	0	0	---	0.00	30.152 
00:05	26.9	26.9	26.9	83	22.4	0	0	---	0.00	30.152 
00:10	26.9	26.9	26.9	83	22.4	0	0	---	0.00	30.152 
00:15	26.9	26.9	26.9	83	22.4	0	0	---	0.00	30.157 
00:20	26.9	26.9	26.9	83	22.4	0	0	---	0.00	30.157 
00:25	26.9	26.9	26.9	83	22.4	0	0	---	0.00	30.157 
00:30	26.7	26.7	26.7	83	22.2	0	0	---	0.00	30.158 
00:35	26.6	26.6	26.6	83	22.1	0	0	---	0.00	30.158 
00:40	26.4	26.4	26.4	83	22.0	0	0	---	0.00	30.158 
00:45	26.4	26.4	26.4	83	22.0	0	0	---	0.00	30.162 
00:50	26.3	26.3	26.3	83	21.9	0	0	---	0.00	30.162 
00:55	26.1	26.1	26.1	83	21.7	0	0	---	0.00	30.162 
01:00	26.0	26.0	26.0	83	21.6	0	0	---	0.00	30.170 
01:05	26.0	26.0	26.0	83	21.6	0	0	---	0.00	30.170 
01:10	25.8	25.8	25.8	83	21.4	0	0	---	0.00	30.170 
01:15	25.8	25.8	25.8	83	21.4	0	0	---	0.00	30.172 
01:20	25.7	25.7	25.7	83	21.3	0	0	---	0.00	30.172 
01:25	25.6	25.6	25.6	83	21.2	0	0	---	0.00	30.172 
01:30	25.4	25.4	25.4	83	21.0	0	0	---	0.00	30.179 
01:35	25.4	25.4	25.4	83	21.0	0	0	---	0.00	30.179 
01:40	25.4	25.4	25.4	83	21.0	0	0	---	0.00	30.179 
01:45	25.3	25.3	25.3	83	20.9	0	0	---	0.00	30.188 
01:50	25.3	25.3	25.3	83	20.9	0	0	---	0.00	30.188 
01:55	25.3	25.3	25.3	83	20.9	0	0	---	0.00	30.188 
02:00	25.1	25.1	25.1	83	20.7	0	0	---	0.00	30.193 
02:05	25.1	25.1	25.1	83	20.7	0	0	---	0.00	30.193 
02:10	25.0	25.0	25.0	83	20.6	0	0	---	0.00	30.193 
02:15	25.0	25.0	25.0	83	20.6	0	0	---	0.00	30.202 
02:20	25.0	25.0	25.0	83	20.6	0	0	---	0.00	30.202 
02:25	24.8	24.8	24.8	83	20.4	0	0	---	0.00	30.202 
02:30	24.8	24.8	24.8	83	20.4	0	0	---	0.00	30.210 
02:35	24.7	24.7	24.7	83	20.3	0	0	---	0.00	30.210 
02:40	24.7	24.7	24.7	83	20.3	0	0	---	0.00	30.210 
02:45	24.7	24.7	24.7	83	20.3	0	0	---	0.00	30.220 
02:50	24.5	24.5	24.5	83	20.1	0	0	---	0.00	30.220 
02:55	24.5	24.5	24.5	83	20.1	0	0	---	0.00	30.220 
03:00	24.5	24.5	24.5	83	20.1	0	0	---	0.00	30.225 
03:05	24.4	24.4	24.4	84	20.3	0	0	---	0.00	30.225 
03:10	24.4	24.4	24.4	84	20.3	0	0	---	0.00	30.225 
03:15	24.2	24.2	24.2	84	20.1	0	0	---	0.00	30.236 
03:20	24.2	24.2	24.2	84	20.1	0	0	---	0.00	30.236 
03:25	24.1	24.1	24.1	84	20.0	0	0	---	0.00	30.236 
03:30	24.1	24.1	24.1	84	20.0	0	0	---	0.00	30.238 
03:35	23.9	23.9	23.9	84	19.8	0	0	---	0.00	30.238 
03:40	23.9	23.9	23.9	84	19.8	0	0	---	0.00	30.238 
03:45	23.8	23.8	23.8	84	19.7	0	0	---	0.00	30.246 
03:50	23.8	23.8	23.8	84	19.7	0	0	---	0.00	30.246 
03:55	23.6	23.6	23.6	84	19.5	0	0	---	0.00	30.246 
04:00	23.6	23.6	23.6	84	19.5	0	0	---	0.00	30.252 
04:05	23.6	23.6	23.6	84	19.5	0	0	---	0.00	30.252 
04:10	23.6	23.6	23.6	84	19.5	0	0	---	0.00	30.252 
04:15	23.6	23.6	23.6	84	19.5	0	0	---	0.00	30.259 
04:20	23.5	23.5	23.5	84	19.4	0	0	---	0.00	30.259 
04:25	23.5	23.5	23.5	84	19.4	0	0	---	0.00	30.259 
04:30	23.3	23.3	23.3	84	19.2	0	0	---	0.00	30.261 
04:35	23.3	23.3	23.3	85	19.5	0	0	---	0.00	30.261 
04:40	23.3	23.3	23.3	85	19.5	0	0	---	0.00	30.261 
04:45	23.3	23.3	23.3	85	19.5	0	0	---	0.00	30.269 
04:50	23.2	23.2	23.2	85	19.4	0	0	---	0.00	30.269 
04:55	23.2	23.2	23.2	85	19.4	0	0	---	0.00	30.269 
05:00	23.2	23.2	23.2	85	19.4	0	0	---	0.00	30.273 
05:05	23.0	23.0	23.0	85	19.2	0	0	---	0.00	30.273 
05:10	23.0	23.0	23.0	85	19.2	0	0	---	0.00	30.273 
05:15	22.9	22.9	22.9	85	19.1	1	5	248	0.00	30.283 
05:20	22.9	22.9	22.9	84	18.8	2	5	248	0.00	30.283 
05:25	22.7	22.7	22.7	84	18.6	2	4	248	0.00	30.283 
05:30	22.4	22.4	22.4	84	18.3	2	5	248	0.00	30.291 
05:35	22.4	22.4	22.4	84	18.3	2	9	248	0.00	30.291 
05:40	22.2	22.2	22.2	84	18.1	2	6	248	0.00	30.291 
05:45	22.1	22.1	22.1	84	18.0	2	5	248	0.00	30.305 
05:50	21.9	21.9	21.9	84	17.8	1	3	248	0.00	30.305 
05:55	21.9	21.9	21.9	84	17.8	2	4	248	0.00	30.305 
06:00	21.8	21.8	21.8	84	17.7	2	5	248	0.00	30.308 
06:05	21.8	21.8	21.8	84	17.7	2	4	248	0.00	30.308 
06:10	21.8	21.8	21.8	84	17.7	1	3	248	0.00	30.308 
06:15	21.8	21.8	21.8	84	17.7	1	3	248	0.00	30.318 
06:20	21.8	21.8	21.8	84	17.7	1	4	248	0.00	30.318 
06:25	21.6	21.6	21.6	84	17.5	2	4	248	0.00	30.318 
06:30	21.4	21.4	21.4	84	17.3	2	4	248	0.00	30.323 
06:35	21.3	21.3	21.3	84	17.2	1	5	248	0.00	30.323 
06:40	21.3	21.3	21.3	84	17.2	2	4	248	0.00	30.323 
06:45	21.1	21.1	21.1	84	17.0	2	4	248	0.00	30.335 
06:50	21.0	21.0	21.0	83	16.7	2	4	248	0.00	30.335 
06:55	20.8	20.8	20.8	83	16.5	2	5	248	0.00	30.335 
07:00	20.8	20.8	20.8	83	16.5	1	5	248	0.00	30.339 
07:05	20.6	20.6	20.6	83	16.3	2	5	248	0.00	30.339 
07:10	20.5	20.5	20.5	83	16.2	1	4	248	0.00	30.339 
07:15	20.5	20.5	20.5	83	16.2	1	3	248	0.00	30.345 
07:20	20.3	20.3	20.3	83	16.0	0	3	248	0.00	30.345 
07:25	20.2	20.2	20.2	83	15.9	1	4	248	0.00	30.345 
07:30	20.2	20.2	20.2	82	15.6	1	3	248	0.00	30.351 
07:35	20.0	20.0	20.0	82	15.4	1	4	248	0.00	30.351 
07:40	19.9	19.9	19.9	82	15.3	1	3	248	0.00	30.351 
07:45	19.9	19.9	19.9	83	15.6	1	3	248	0.00	30.353 
07:50	19.9	19.9	19.9	82	15.3	1	4	248	0.00	30.353 
07:55	19.7	19.7	19.7	82	15.1	2	5	248	0.00	30.353 
08:00	19.7	19.7	19.7	82	15.1	2	4	225	0.00	30.366 
08:05	19.7	19.7	19.7	82	15.1	1	3	225	0.00	30.366 
08:10	19.7	19.7	19.7	82	15.1	1	3	225	0.00	30.366 
08:15	19.7	19.7	19.7	82	15.1	1	4	225	0.00	30.369 
08:20	19.7	19.7	19.7	82	15.1	1	3	225	0.00	30.369 
08:25	19.7	19.7	19.7	82	15.1	1	2	225	0.00	30.369 
08:30	19.9	19.9	19.9	82	15.3	0	1	225	0.00	30.361 
08:35	19.9	19.9	19.9	82	15.3	0	2	225	0.00	30.361 
08:40	20.0	20.0	20.0	82	15.4	0	3	225	0.00	30.361 
08:45	20.0	20.0	20.0	82	15.4	0	3	225	0.00	30.362 
08:50	20.2	20.2	20.2	82	15.6	1	3	225	0.00	30.362 
08:55	20.0	20.0	20.0	81	15.1	2	5	248	0.00	30.362 
09:00	19.9	19.9	19.9	81	15.0	2	3	248	0.00	30.369 
09:05	19.9	19.9	19.9	81	15.0	1	3	248	0.00	30.369 
09:10	20.0	20.0	20.0	81	15.1	1	5	248	0.00	30.369 
09:15	20.2	20.2	20.2	81	15.3	1	3	248	0.00	30.372 
09:20	20.2	20.2	20.2	81	15.3	1	2	248	0.00	30.372 
09:25	20.3	20.3	20.3	81	15.4	1	2	248	0.00	30.372 
09:30	20.5	20.5	20.5	81	15.6	1	3	248	0.00	30.381 
09:35	20.5	20.5	20.5	81	15.6	1	4	248	0.00	30.381 
09:40	20.5	20.5	20.5	80	15.3	2	5	248	0.00	30.381 
09:45	20.5	20.5	20.5	80	15.3	1	6	248	0.00	30.383 
09:50	20.5	20.5	20.5	80	15.3	2	7	248	0.00	30.383 
09:55	20.3	20.3	20.3	79	14.8	2	5	248	0.00	30.383 
10:00	20.2	20.2	20.2	79	14.8	1	3	248	0.00	30.386 
10:05	20.3	20.3	20.3	79	14.8	1	2	248	0.00	30.386 
10:10	20.5	20.5	20.5	79	15.0	1	5	248	0.00	30.386 
10:15	20.6	20.6	20.6	79	15.1	1	3	248	0.00	30.391 
10:20	20.6	20.6	20.6	79	15.1	0	2	248	0.00	30.391 
10:25	20.5	20.5	20.5	78	14.8	1	3	248	0.00	30.391 
10:30	20.2	20.2	20.2	78	14.5	1	5	248	0.00	30.404 
10:35	20.2	20.2	20.2	78	14.5	1	4	248	0.00	30.404 
10:40	20.5	20.5	20.5	79	15.0	1	2	248	0.00	30.404 
10:45	20.8	20.8	20.8	78	15.0	0	3	248	0.00	30.402 
10:50	21.1	21.1	21.1	78	15.3	1	3	248	0.00	30.402 
10:55	21.3	21.3	21.3	77	15.2	0	2	248	0.00	30.402 
11:00	21.6	21.6	21.6	77	15.5	0	2	248	0.00	30.402 
11:05	21.6	21.6	21.6	77	15.5	1	4	248	0.00	30.402 
11:10	21.8	21.8	21.8	77	15.7	1	4	225	0.00	30.402 
11:15	22.1	22.1	22.1	76	15.7	1	6	248	0.00	30.406 
11:20	21.8	21.8	21.8	75	15.1	2	9	248	0.00	30.406 
11:25	21.6	21.6	21.6	75	14.9	2	5	248	0.00	30.406 
11:30	21.6	21.6	21.6	75	14.9	1	4	248	0.00	30.402 
11:35	21.6	21.6	21.6	75	14.9	1	3	248	0.00	30.402 
11:40	21.6	21.6	21.6	75	14.9	2	5	248	0.00	30.402 
11:45	21.6	21.6	21.6	74	14.6	1	8	248	0.00	30.401 
11:50	21.6	21.6	21.6	73	14.3	2	5	248	0.00	30.401 
11:55	21.8	21.8	21.8	73	14.5	1	5	248	0.00	30.401 
12:00	21.9	21.9	21.9	73	14.6	1	6	248	0.00	30.392 
12:05	22.1	22.1	22.1	73	14.8	1	2	248	0.00	30.392 
12:10	22.4	22.4	22.4	72	14.8	2	4	248	0.00	30.392 
12:15	22.5	22.5	22.5	72	14.9	0	2	248	0.00	30.385 
12:20	22.9	22.9	22.9	71	14.9	0	3	248	0.00	30.385 
12:25	23.0	23.0	23.0	71	15.0	0	2	248	0.00	30.385 
12:30	23.3	23.3	23.3	70	15.0	1	3	248	0.00	30.374 
12:35	23.5	23.5	23.5	69	14.9	1	5	248	0.00	30.374 
12:40	23.6	23.6	23.6	69	14.9	0	5	248	0.00	30.374 
12:45	23.8	23.8	23.8	69	15.1	1	4	225	0.00	30.373 
12:50	23.9	23.9	23.9	68	14.9	1	4	248	0.00	30.373 
12:55	24.1	24.1	24.1	68	15.1	1	5	270	0.00	30.373 
13:00	24.2	24.2	24.2	68	15.2	1	4	270	0.00	30.367 
13:05	24.2	24.2	24.2	67	14.8	1	5	248	0.00	30.367 
13:10	24.2	24.2	24.2	67	14.8	1	3	248	0.00	30.367 
13:15	24.4	24.4	24.4	67	15.0	1	4	248	0.00	30.362 
13:20	24.5	24.5	24.5	67	15.1	1	4	248	0.00	30.362 
13:25	24.7	24.7	24.7	67	15.3	0	2	248	0.00	30.362 
13:30	24.8	24.8	24.8	67	15.4	0	3	248	0.00	30.358 
13:35	25.0	25.0	25.0	67	15.6	1	3	248	0.00	30.358 
13:40	25.1	25.1	25.1	66	15.4	2	5	248	0.00	30.358 
13:45	25.1	25.1	25.1	66	15.4	1	5	248	0.00	30.354 
13:50	25.0	25.0	25.0	66	15.3	1	3	248	0.00	30.354 
13:55	25.1	25.1	25.1	67	15.7	0	2	248	0.00	30.354 
14:00	25.3	25.3	25.3	66	15.6	1	5	248	0.00	30.357 
14:05	25.3	25.3	25.3	67	15.9	0	3	248	0.00	30.357 
14:10	25.4	25.4	25.4	67	16.0	1	4	248	0.00	30.357 
14:15	25.4	25.4	25.4	66	15.7	1	4	248	0.00	30.351 
14:20	25.6	25.6	25.6	67	16.2	1	3	248	0.00	30.351 
14:25	25.6	25.6	25.6	66	15.8	1	5	248	0.00	30.351 
14:30	25.7	25.7	25.7	66	15.9	1	4	248	0.00	30.343 
14:35	25.7	25.7	25.7	66	15.9	1	3	248	0.00	30.343 
14:40	25.7	25.7	25.7	66	15.9	1	3	248	0.00	30.343 
14:45	25.7	25.7	25.7	66	15.9	0	1	248	0.00	30.340 
14:50	25.4	25.4	25.4	66	15.7	0	3	248	0.00	30.340 
14:55	25.3	25.3	25.3	67	15.9	0	2	248	0.00	30.340 
15:00	25.0	25.0	25.0	67	15.6	1	4	248	0.00	30.342 
15:05	24.8	24.8	24.8	68	15.8	1	4	248	0.00	30.342 
15:10	25.0	25.0	25.0	68	16.0	2	4	248	0.00	30.342 
15:15	25.0	25.0	25.0	68	16.0	2	6	248	0.00	30.348 
15:20	25.0	25.0	25.0	68	16.0	1	6	248	0.00	30.348 
15:25	25.1	25.1	25.1	68	16.1	1	4	248	0.00	30.348 
15:30	25.1	25.1	25.1	69	16.4	1	6	248	0.00	30.353 
15:35	25.3	25.3	25.3	68	16.2	1	6	248	0.00	30.353 
15:40	25.4	25.4	25.4	68	16.3	1	5	248	0.00	30.353 
15:45	25.4	25.4	25.4	68	16.3	1	6	248	0.00	30.341 
15:50	25.4	25.4	25.4	68	16.3	1	3	248	0.00	30.341 
15:55	25.4	25.4	25.4	68	16.3	2	4	248	0.00	30.341 
16:00	25.4	25.4	25.4	68	16.3	1	4	248	0.00	30.338 
16:05	25.4	25.4	25.4	69	16.7	1	4	248	0.00	30.338 
16:10	25.4	25.4	25.4	69	16.7	1	3	248	0.00	30.338 
16:15	25.3	25.3	25.3	69	16.6	1	3	248	0.00	30.329 
16:20	25.3	25.3	25.3	69	16.6	0	3	248	0.00	30.329 
16:25	25.3	25.3	25.3	69	16.6	0	2	248	0.00	30.329 
16:30	25.1	25.1	25.1	69	16.4	0	5	248	0.00	30.327 
16:35	25.1	25.1	25.1	69	16.4	0	2	248	0.00	30.327 
16:40	25.0	25.0	25.0	70	16.6	0	2	248	0.00	30.327 
16:45	24.8	24.8	24.8	70	16.4	1	3	248	0.00	30.328 
16:50	24.7	24.7	24.7	70	16.3	1	4	248	0.00	30.328 
16:55	24.7	24.7	24.7	71	16.7	1	5	248	0.00	30.328 
17:00	24.5	24.5	24.5	71	16.5	0	2	248	0.00	30.323 
17:05	24.4	24.4	24.4	72	16.7	1	3	248	0.00	30.323 
17:10	24.2	24.2	24.2	72	16.5	0	3	248	0.00	30.323 
17:15	24.1	24.1	24.1	72	16.4	0	2	248	0.00	30.325 
17:20	23.9	23.9	23.9	73	16.5	0	1	248	0.00	30.325 
17:25	23.8	23.8	23.8	73	16.4	0	2	248	0.00	30.325 
17:30	23.6	23.6	23.6	73	16.2	0	3	248	0.00	30.325 
17:35	23.5	23.5	23.5	73	16.1	0	0	---	0.00	30.325 
17:40	23.3	23.3	23.3	74	16.3	0	1	248	0.00	30.325 
17:45	23.0	23.0	23.0	74	16.0	0	2	248	0.00	30.322 
17:50	22.7	22.7	22.7	74	15.7	0	1	248	0.00	30.322 
17:55	22.5	22.5	22.5	75	15.8	0	2	248	0.00	30.322 
18:00	22.5	22.5	22.5	75	15.8	0	2	248	0.00	30.325 
18:05	22.4	22.4	22.4	75	15.7	0	1	248	0.00	30.325 
18:10	22.2	22.2	22.2	76	15.8	0	1	248	0.00	30.325 
18:15	22.2	22.2	22.2	76	15.8	0	1	248	0.00	30.326 
18:20	22.1	22.1	22.1	76	15.7	0	1	248	0.00	30.326 
18:25	22.1	22.1	22.1	76	15.7	0	1	248	0.00	30.326 
18:30	21.9	21.9	21.9	77	15.8	0	3	248	0.00	30.329 
18:35	21.8	21.8	21.8	77	15.7	0	2	248	0.00	30.329 
18:40	21.8	21.8	21.8	77	15.7	0	2	248	0.00	30.329 
18:45	21.8	21.8	21.8	77	15.7	0	2	248	0.00	30.340 
18:50	21.8	21.8	21.8	77	15.7	0	2	248	0.00	30.340 
18:55	21.9	21.9	21.9	78	16.1	0	2	248	0.00	30.340 
19:00	22.1	22.1	22.1	78	16.3	0	3	248	0.00	30.348 
19:05	22.1	22.1	22.1	78	16.3	0	3	248	0.00	30.348 
19:10	22.2	22.2	22.2	78	16.4	1	4	248	0.00	30.348 
19:15	22.4	22.4	22.4	78	16.6	0	3	248	0.00	30.345 
19:20	22.4	22.4	22.4	78	16.6	1	3	248	0.00	30.345 
19:25	22.4	22.4	22.4	78	16.6	1	4	248	0.00	30.345 
19:30	22.5	22.5	22.5	78	16.7	0	3	248	0.00	30.344 
19:35	22.5	22.5	22.5	78	16.7	0	3	248	0.00	30.344 
19:40	22.5	22.5	22.5	78	16.7	1	4	248	0.00	30.344 
19:45	22.5	22.5	22.5	78	16.7	0	4	248	0.00	30.344 
19:50	22.5	22.5	22.5	78	16.7	1	4	248	0.00	30.344 
19:55	22.5	22.5	22.5	78	16.7	0	2	248	0.00	30.344 
20:00	22.5	22.5	22.5	78	16.7	0	3	248	0.00	30.336 
20:05	22.5	22.5	22.5	78	16.7	1	4	248	0.00	30.336 
20:10	22.5	22.5	22.5	78	16.7	1	3	248	0.00	30.336 
20:15	22.5	22.5	22.5	78	16.7	1	3	248	0.00	30.329 
20:20	22.5	22.5	22.5	78	16.7	0	3	248	0.00	30.329 
20:25	22.4	22.4	22.4	78	16.6	1	4	248	0.00	30.329 
20:30	22.4	22.4	22.4	78	16.6	0	3	248	0.00	30.320 
20:35	22.4	22.4	22.4	78	16.6	0	3	248	0.00	30.320 
20:40	22.4	22.4	22.4	78	16.6	1	3	248	0.00	30.320 
20:45	22.2	22.2	22.2	78	16.4	1	4	248	0.00	30.314 
20:50	22.2	22.2	22.2	78	16.4	1	4	248	0.00	30.314 
20:55	22.2	22.2	22.2	78	16.4	0	5	248	0.00	30.314 
21:00	22.2	22.2	22.2	78	16.4	0	3	248	0.00	30.313 
21:05	22.1	22.1	22.1	78	16.3	1	3	248	0.00	30.313 
21:10	22.1	22.1	22.1	78	16.3	0	3	248	0.00	30.313 
21:15	22.1	22.1	22.1	78	16.3	0	4	248	0.00	30.311 
21:20	21.9	21.9	21.9	78	16.1	1	5	248	0.00	30.311 
21:25	21.9	21.9	21.9	78	16.1	1	4	248	0.00	30.311 
21:30	21.9	21.9	21.9	79	16.4	0	4	248	0.00	30.295 
21:35	21.9	21.9	21.9	79	16.4	1	3	248	0.00	30.295 
21:40	21.9	21.9	21.9	79	16.4	0	2	248	0.00	30.295 
21:45	21.9	21.9	21.9	79	16.4	0	3	248	0.00	30.294 
21:50	21.9	21.9	21.9	79	16.4	0	2	248	0.00	30.294 
21:55	21.8	21.8	21.8	79	16.3	0	4	248	0.00	30.294 
22:00	21.8	21.8	21.8	79	16.3	1	3	248	0.00	30.296 
22:05	21.9	21.9	21.9	79	16.4	1	4	248	0.00	30.296 
22:10	21.9	21.9	21.9	79	16.4	1	4	248	0.00	30.296 
22:15	21.9	21.9	21.9	79	16.4	1	5	248	0.00	30.280 
22:20	21.9	21.9	21.9	79	16.4	1	4	248	0.00	30.280 
22:25	21.9	21.9	21.9	79	16.4	0	3	248	0.00	30.280 
22:30	21.9	21.9	21.9	79	16.4	0	1	248	0.00	30.277 
22:35	21.8	21.8	21.8	79	16.3	0	1	248	0.00	30.277 
22:40	21.8	21.8	21.8	79	16.3	0	2	248	0.00	30.277 
22:45	21.8	21.8	21.8	79	16.3	0	2	248	0.00	30.277 
22:50	21.8	21.8	21.8	79	16.3	0	2	248	0.00	30.277 
22:55	21.9	21.9	21.9	79	16.4	0	3	248	0.00	30.277 
23:00	21.9	21.9	21.9	79	16.4	1	5	248	0.00	30.280 
23:05	22.1	22.1	22.1	79	16.6	0	2	270	0.00	30.280 
23:10	22.2	22.2	22.2	79	16.7	0	3	270	0.00	30.280 
23:15	22.2	22.2	22.2	79	16.7	1	3	248	0.00	30.278 
23:20	22.4	22.4	22.4	79	16.9	0	3	248	0.00	30.278 
23:25	22.5	22.5	22.5	79	17.0	1	3	248	0.00	30.278 
23:30	22.5	22.5	22.5	79	17.0	1	4	248	0.00	30.273 
23:35	22.5	22.5	22.5	79	17.0	0	3	248	0.00	30.273 
23:40	22.7	22.7	22.7	79	17.2	1	4	248	0.00	30.273 
23:45	22.7	22.7	22.7	79	17.2	0	1	248	0.00	30.266 
23:50	22.7	22.7	22.7	79	17.2	0	2	248	0.00	30.266 
23:55	22.9	22.9	22.9	79	17.4	0	3	248	0.00	30.266 

CoCoRaHS
IN-AL-39
A2 Web Hosting
Creative Commons License
GoDaddy
search engine by freefind advanced

loaded 2018-11-19 19:46:36 • last modified 2010-11-18 10:43:29
Privacy PolicyDisclaimer
• wx.awcolley.com is powered by PmWiki v.2002016 •
• all content (unless otherwise noted) © 2018 A W Colley